Change the Weather History Date:

Saturday, October 20, 2012

  Actual Average Record
Temperature  
Mean Temperature 57 °F -  
Max Temperature 65 °F - - ()
Min Temperature 47 °F - - ()
Degree Days  
Heating Degree Days 8    
Growing Degree Days 7 (Base 50)    
Moisture  
Dew Point 51 °F    
Average Humidity 83    
Maximum Humidity 99    
Minimum Humidity 52    
Precipitation  
Precipitation 0.00 in - - ()
Sea Level Pressure  
Sea Level Pressure 29.63 in    
Wind  
Wind Speed 6 mph ()    
Max Wind Speed 13 mph    
Max Gust Speed -    
T = Trace of Precipitation, MM = Missing Value Source: Averaged Metar Reports

Daily Weather History Graph

Daily Weather History Graph

Search for Another Location

Airport or City:

Trip Planner

Search our weather history database for the weather conditions in past years. The results will help you decide how hot, cold, wet, or windy it might be!

Date:

Astronomy

Oct. 20, 2012 Rise Set
Actual Time 7:20 AM EDT 6:02 PM EDT
Civil Twilight 6:50 AM EDT 6:32 PM EDT
Nautical Twilight 6:16 AM EDT 7:06 PM EDT
Astronomical Twilight 5:41 AM EDT 7:40 PM EDT
Moon 1:02 PM EDT (10/20) 10:38 PM EDT (10/20)
Length of Visible Light 11h 42m
Length of Day
10h 42m
Waxing Crescent, 34% of the Moon is Illuminated
Oct 20
Waxing Crescent
Oct 21
First Quarter
Oct 29
Full
Nov 6
Last Quarter
Nov 13
New

Hourly Weather History & Observations

Time (EDT) Temp. Dew Point Humidity Pressure Visibility Wind Dir Wind Speed Gust Speed Precip Events Conditions
12:00 AM 56.3 °F 55.9 °F 99% 29.66 in - ENE 6.9 mph - N/A   Unknown
1:00 AM 56.1 °F 55.8 °F 99% 29.63 in - East 6.9 mph - N/A   Unknown
2:00 AM 56 °F 55 °F 97% 29.60 in - ENE 8.1 mph - -  
2:00 AM 55.8 °F 55.4 °F 99% 29.60 in - ENE 8.1 mph - N/A   Unknown
3:00 AM 55.9 °F 55.8 °F 99% 29.61 in - NE 2.3 mph - N/A   Unknown
4:00 AM 55.8 °F 55.6 °F 99% 29.60 in - NE 5.8 mph - N/A   Unknown
5:00 AM 55.6 °F 55.2 °F 99% 29.60 in - East 3.5 mph - N/A   Unknown
6:00 AM 54.9 °F 54.7 °F 99% 29.61 in - ESE 3.5 mph - N/A   Unknown
7:00 AM 53.6 °F 53.4 °F 99% 29.62 in - WSW 2.3 mph - N/A   Unknown
8:00 AM 54 °F 53 °F 97% 29.62 in - SW 3.5 mph - -  
8:00 AM 53.6 °F 53.4 °F 99% 29.62 in - SW 3.5 mph - N/A   Unknown
9:00 AM 57.9 °F 56.7 °F 96% 29.63 in - SW 4.6 mph - N/A   Unknown
10:00 AM 60.6 °F 55.9 °F 85% 29.62 in - SW 8.1 mph - N/A   Unknown
11:00 AM 62.1 °F 55.6 °F 79% 29.62 in - WSW 11.5 mph - N/A   Unknown
12:00 PM 63.1 °F 53.4 °F 71% 29.63 in - WSW 12.7 mph - N/A   Unknown
1:00 PM 64.9 °F 53.1 °F 65% 29.61 in - West 6.9 mph - N/A   Unknown
2:00 PM 64 °F 51 °F 52% 29.60 in - West 10.4 mph - -  
2:00 PM 63.5 °F 50.7 °F 63% 29.60 in - West 10.4 mph - N/A   Unknown
3:00 PM 60.3 °F 48.9 °F 66% 29.61 in - West 11.5 mph - N/A   Unknown
4:00 PM 57.7 °F 47.8 °F 70% 29.63 in - West 9.2 mph - N/A   Unknown
5:00 PM 58.3 °F 46.8 °F 66% 29.63 in - WSW 9.2 mph - N/A   Unknown
6:00 PM 55.2 °F 44.1 °F 66% 29.65 in - SW 6.9 mph - N/A   Unknown
7:00 PM 51.4 °F 43.3 °F 74% 29.67 in - WSW 2.3 mph - N/A   Unknown
8:00 PM 50 °F 43 °F 68% 29.68 in - SW 4.6 mph - -  
8:00 PM 49.6 °F 42.6 °F 77% 29.68 in - SW 4.6 mph - N/A   Unknown
9:00 PM 50.9 °F 42.1 °F 72% 29.69 in - WSW 9.2 mph - N/A   Unknown
10:00 PM 49.5 °F 42.3 °F 76% 29.68 in - SW 5.8 mph - N/A   Unknown
11:00 PM 47.5 °F 42.1 °F 82% 29.69 in - SW 4.6 mph - N/A   Unknown